User: anonymous   Login
Location: Unspecified
(0.0000°N, 0.0000°E)
Time: 10:25:08
(UTC+02:00)
Language:

Orbus 21S - Orbit

View from above orbital plane
View from above orbital plane
View from above satellite
View from above satellite

Ground track
Ground track

The orbit data is extracted from the following two-line orbital elements,

1 20669U 90056C   15184.97771537  .00001229  00000-0  58030-3 0  9991
2 20669 024.5703 024.8674 7127452 230.4435 351.1358 02.45901383209749
Epoch (UTC): 03 July 2015 23:27:54
Eccentricity: 0.7127452
inclination: 24.5703°
perigee height: 282 km
apogee height: 33333 km
right ascension of ascending node: 24.8674°
argument of perigee: 230.4435°
revolutions per day: 2.45901383
mean anomaly at epoch: 351.1358°
orbit number at epoch: 20974

The dashed part of the orbit path shows where the satellite is in the earth's shadow,  

DLR